Hourly Weather Sugar Land

Today, 17 January, Sunday

Time Temperature Precipitation Wind Pressure Humidity
00:00 +8°C° 0 mm 0 mps 762 mmHg 45%
01:00 +8°C° 0 mm 0 mps 762 mmHg 46%
02:00 +8°C° 0 mm 0 mps 762 mmHg 47%
03:00 +8°C° 0 mm 0 mps 761 mmHg 48%
04:00 +9°C° 0 mm 1 mps 762 mmHg 48%
05:00 +9°C° 0 mm 1 mps 762 mmHg 48%
06:00 +9°C° 0 mm 1 mps 762 mmHg 48%
07:00 +9°C° 0 mm 1 mps 762 mmHg 49%
08:00 +9°C° 0 mm 2 mps 763 mmHg 50%
09:00 +10°C° 0 mm 2 mps 763 mmHg 51%
10:00 +13°C° 0 mm 2 mps 763 mmHg 48%
11:00 +15°C° 0 mm 2 mps 763 mmHg 44%
12:00 +17°C° 0 mm 2 mps 763 mmHg 40%
13:00 +17°C° 0 mm 3 mps 763 mmHg 40%
14:00 +18°C° 0 mm 3 mps 762 mmHg 40%
15:00 +18°C° 0 mm 3 mps 761 mmHg 39%
16:00 +17°C° 0 mm 3 mps 762 mmHg 43%
17:00 +16°C° 0 mm 2 mps 762 mmHg 47%
18:00 +15°C° 0 mm 2 mps 762 mmHg 51%
19:00 +14°C° 0 mm 2 mps 762 mmHg 53%
20:00 +13°C° 0 mm 2 mps 763 mmHg 55%
21:00 +13°C° 0 mm 1 mps 763 mmHg 56%
22:00 +12°C° 0 mm 1 mps 763 mmHg 57%
23:00 +12°C° 0 mm 1 mps 763 mmHg 58%

Tomorrow, 18 January, Monday

Time Temperature Precipitation Wind Pressure Humidity
00:00 +12°C° 0 mm 1 mps 764 mmHg 59%
01:00 +11°C° 0 mm 1 mps 763 mmHg 59%
02:00 +11°C° 0 mm 1 mps 763 mmHg 58%
03:00 +10°C° 0 mm 2 mps 762 mmHg 58%
04:00 +9°C° 0 mm 2 mps 762 mmHg 59%
05:00 +9°C° 0 mm 2 mps 762 mmHg 61%
06:00 +9°C° 0 mm 2 mps 762 mmHg 62%
07:00 +9°C° 0 mm 2 mps 762 mmHg 63%
08:00 +10°C° 0 mm 3 mps 763 mmHg 64%
09:00 +11°C° 0 mm 3 mps 763 mmHg 65%
10:00 +13°C° 0 mm 4 mps 762 mmHg 62%
11:00 +15°C° 0 mm 4 mps 762 mmHg 59%
12:00 +17°C° 0 mm 5 mps 762 mmHg 56%
13:00 +19°C° 0 mm 5 mps 761 mmHg 57%
14:00 +19°C° 0 mm 5 mps 761 mmHg 59%
15:00 +19°C° 0 mm 5 mps 760 mmHg 61%
16:00 +17°C° 0 mm 5 mps 760 mmHg 64%
17:00 +16°C° 0 mm 5 mps 760 mmHg 66%
18:00 +16°C° 0 mm 5 mps 760 mmHg 69%
19:00 +16°C° 0 mm 5 mps 760 mmHg 73%
20:00 +16°C° 0 mm 5 mps 760 mmHg 76%
21:00 +16°C° 0 mm 5 mps 761 mmHg 80%
22:00 +17°C° 0 mm 5 mps 761 mmHg 81%
23:00 +17°C° 0 mm 5 mps 761 mmHg 83%

Day after tomorrow, 19 January, Tuesday

Time Temperature Precipitation Wind Pressure Humidity
00:00 +17°C° 0 mm 5 mps 761 mmHg 84%
01:00 +18°C° 0 mm 4 mps 761 mmHg 84%
02:00 +18°C° 0 mm 4 mps 761 mmHg 85%
03:00 +18°C° 0 mm 4 mps 761 mmHg 86%
04:00 +18°C° 0 mm 4 mps 762 mmHg 85%
05:00 +18°C° 0 mm 4 mps 762 mmHg 84%
06:00 +18°C° 0 mm 4 mps 762 mmHg 84%
07:00 +18°C° 0 mm 4 mps 763 mmHg 83%
08:00 +18°C° 0 mm 4 mps 764 mmHg 83%
09:00 +18°C° 0 mm 4 mps 764 mmHg 82%
10:00 +18°C° 0 mm 4 mps 764 mmHg 81%
11:00 +19°C° 0 mm 4 mps 765 mmHg 80%
12:00 +19°C° 0 mm 4 mps 765 mmHg 80%
13:00 +20°C° 0 mm 4 mps 765 mmHg 77%
14:00 +20°C° 0 mm 4 mps 764 mmHg 75%
15:00 +21°C° 0 mm 4 mps 764 mmHg 72%
16:00 +20°C° 0 mm 4 mps 765 mmHg 75%
17:00 +19°C° 0 mm 3 mps 765 mmHg 78%
18:00 +19°C° 0 mm 3 mps 765 mmHg 81%
19:00 +18°C° 0 mm 3 mps 766 mmHg 82%
20:00 +18°C° 0 mm 3 mps 766 mmHg 83%
21:00 +18°C° 0 mm 3 mps 766 mmHg 83%
22:00 +18°C° 0 mm 3 mps 767 mmHg 84%
23:00 +18°C° 0 mm 3 mps 767 mmHg 84%

20 January, Wednesday

Time Temperature Precipitation Wind Pressure Humidity
00:00 +18°C° 0 mm 2 mps 767 mmHg 84%
01:00 +17°C° 0 mm 2 mps 767 mmHg 85%
02:00 +17°C° 0 mm 2 mps 767 mmHg 86%
03:00 +17°C° 0 mm 2 mps 767 mmHg 87%
04:00 +17°C° 0 mm 2 mps 767 mmHg 87%
05:00 +16°C° 0 mm 2 mps 767 mmHg 88%
06:00 +16°C° 0 mm 3 mps 767 mmHg 88%
07:00 +16°C° 0 mm 3 mps 767 mmHg 87%
08:00 +16°C° 0 mm 2 mps 768 mmHg 86%
09:00 +17°C° 0 mm 2 mps 768 mmHg 85%
10:00 +18°C° 0 mm 2 mps 768 mmHg 80%
11:00 +20°C° 0 mm 3 mps 767 mmHg 74%
12:00 +22°C° 0 mm 3 mps 767 mmHg 69%
13:00 +22°C° 0 mm 3 mps 766 mmHg 70%
14:00 +22°C° 0 mm 3 mps 766 mmHg 72%
15:00 +22°C° 0 mm 3 mps 765 mmHg 73%
16:00 +21°C° 0 mm 3 mps 765 mmHg 76%
17:00 +20°C° 0 mm 3 mps 765 mmHg 79%
18:00 +20°C° 0 mm 3 mps 764 mmHg 82%
19:00 +19°C° 0 mm 3 mps 765 mmHg 84%
20:00 +19°C° 0 mm 3 mps 765 mmHg 86%
21:00 +18°C° 0 mm 3 mps 765 mmHg 88%
22:00 +18°C° 0 mm 3 mps 764 mmHg 89%
23:00 +18°C° 0 mm 3 mps 764 mmHg 89%

21 January, Thursday

Time Temperature Precipitation Wind Pressure Humidity
00:00 +18°C° 0 mm 4 mps 763 mmHg 90%
01:00 +18°C° 0 mm 3 mps 763 mmHg 90%
02:00 +18°C° 0 mm 3 mps 763 mmHg 91%
03:00 +18°C° 0 mm 2 mps 763 mmHg 91%
04:00 +18°C° 0 mm 2 mps 762 mmHg 92%
05:00 +18°C° 0 mm 2 mps 762 mmHg 92%
06:00 +18°C° 0 mm 2 mps 762 mmHg 92%
07:00 +19°C° 0 mm 3 mps 762 mmHg 90%
08:00 +19°C° 0 mm 4 mps 762 mmHg 89%
09:00 +20°C° 0 mm 5 mps 762 mmHg 87%
10:00 +21°C° 0 mm 5 mps 762 mmHg 82%
11:00 +22°C° 0 mm 5 mps 761 mmHg 77%
12:00 +25°C° 0 mm 5 mps 761 mmHg 73%
13:00 +23°C° 0.1 mm 5 mps 760 mmHg 73%
14:00 +23°C° 0.1 mm 4 mps 760 mmHg 74%
15:00 +23°C° 0.1 mm 4 mps 759 mmHg 75%
16:00 +23°C° 0 mm 4 mps 759 mmHg 78%
17:00 +22°C° 0 mm 3 mps 759 mmHg 81%
18:00 +21°C° 0 mm 3 mps 759 mmHg 84%
19:00 +21°C° 0 mm 3 mps 759 mmHg 84%
20:00 +21°C° 0 mm 3 mps 759 mmHg 85%
21:00 +20°C° 0 mm 3 mps 759 mmHg 86%
22:00 +20°C° 0 mm 3 mps 759 mmHg 87%
23:00 +20°C° 0 mm 3 mps 759 mmHg 89%

22 January, Friday

Time Temperature Precipitation Wind Pressure Humidity
00:00 +20°C° 0 mm 4 mps 758 mmHg 90%
01:00 +20°C° 0 mm 4 mps 758 mmHg 90%
02:00 +20°C° 0 mm 4 mps 758 mmHg 90%
03:00 +20°C° 0 mm 4 mps 758 mmHg 90%
04:00 +20°C° 0 mm 3 mps 757 mmHg 90%
05:00 +20°C° 0 mm 3 mps 757 mmHg 90%
06:00 +20°C° 0 mm 3 mps 757 mmHg 91%
07:00 +20°C° 0.1 mm 3 mps 758 mmHg 91%
08:00 +20°C° 0.1 mm 3 mps 758 mmHg 91%
09:00 +20°C° 0.1 mm 3 mps 758 mmHg 92%
10:00 +21°C° 0 mm 3 mps 758 mmHg 90%
11:00 +21°C° 0 mm 4 mps 758 mmHg 89%
12:00 +22°C° 0 mm 4 mps 758 mmHg 87%
13:00 +22°C° 0.1 mm 3 mps 757 mmHg 88%
14:00 +22°C° 0.1 mm 3 mps 757 mmHg 89%
15:00 +23°C° 0.1 mm 2 mps 756 mmHg 90%
16:00 +23°C° 0 mm 2 mps 756 mmHg 91%
17:00 +23°C° 0 mm 2 mps 756 mmHg 91%
18:00 +23°C° 0 mm 2 mps 756 mmHg 92%
19:00 +21°C° 0 mm 2 mps 757 mmHg 93%
20:00 +21°C° 0 mm 2 mps 757 mmHg 93%
21:00 +21°C° 0 mm 2 mps 758 mmHg 94%
22:00 +21°C° 0 mm 2 mps 758 mmHg 94%
23:00 +20°C° 0 mm 2 mps 758 mmHg 95%
Show more